| time (UTC) | temp C | wind direction | speed KPH | gust KPH | rain 1hr cm | rain 24hr cm | rain mn cm | humidity % | barometer mb |
| 20260506192045 | 7 | 0 | 0.0 | 8.0 | 0.00 | 1.52 | 1.19 | 96 | 1010.4 |
| 20260506191557 | 7 | 0 | 0.0 | 8.0 | 0.00 | 1.52 | 1.19 | 96 | 1010.4 |
| 20260506191047 | 7 | 0 | 0.0 | 4.8 | 0.00 | 1.52 | 1.19 | 96 | 1010.2 |
| 20260506190549 | 7 | 0 | 0.0 | 3.2 | 0.00 | 1.52 | 1.19 | 96 | 1010.1 |
| 20260506190056 | 7 | 0 | 0.0 | 6.4 | 0.00 | 1.52 | 1.19 | 96 | 1010.0 |
| 20260506185546 | 7 | 0 | 0.0 | 6.4 | 0.00 | 1.55 | 1.19 | 96 | 1010.0 |
| 20260506185049 | 7 | 0 | 0.0 | 8.0 | 0.00 | 1.55 | 1.19 | 96 | 1010.0 |
| 20260506184604 | 7 | 0 | 0.0 | 8.0 | 0.00 | 1.55 | 1.19 | 96 | 1009.9 |
| 20260506184047 | 7 | 0 | 0.0 | 8.0 | 0.00 | 1.55 | 1.19 | 96 | 1009.9 |
| 20260506183546 | 7 | 0 | 0.0 | 9.7 | 0.00 | 1.55 | 1.19 | 96 | 1009.7 |
| 20260506183103 | 7 | 0 | 0.0 | 12.9 | 0.00 | 1.55 | 1.19 | 96 | 1009.7 |
| 20260506182545 | 7 | 338 | 0.0 | 12.9 | 0.00 | 1.55 | 1.19 | 96 | 1009.8 |
| 20260506182047 | 8 | 360 | 0.0 | 9.7 | 0.00 | 1.55 | 1.19 | 96 | 1009.7 |
| 20260506181559 | 8 | 0 | 0.0 | 9.7 | 0.00 | 1.55 | 1.19 | 96 | 1009.7 |
| 20260506181047 | 8 | 360 | 0.0 | 8.0 | 0.00 | 1.55 | 1.19 | 96 | 1009.7 |
| 20260506180544 | 8 | 0 | 0.0 | 6.4 | 0.00 | 1.52 | 1.17 | 96 | 1009.6 |
| 20260506180058 | 8 | 0 | 0.0 | 6.4 | 0.00 | 1.52 | 1.17 | 96 | 1009.4 |
| 20260506175545 | 8 | 0 | 0.0 | 4.8 | 0.00 | 1.52 | 1.17 | 96 | 1009.5 |
| 20260506175045 | 8 | 0 | 0.0 | 4.8 | 0.00 | 1.52 | 1.17 | 96 | 1009.4 |
| 20260506174555 | 8 | 0 | 0.0 | 0.0 | 0.00 | 1.52 | 1.17 | 96 | 1009.5 |
| 20260506174045 | 8 | 0 | 0.0 | 0.0 | 0.00 | 1.52 | 1.17 | 96 | 1009.4 |
| 20260506173547 | 8 | 0 | 0.0 | 0.0 | 0.00 | 1.52 | 1.17 | 96 | 1009.4 |
| 20260506173103 | 8 | 0 | 0.0 | 0.0 | 0.00 | 1.52 | 1.17 | 96 | 1009.3 |
| 20260506172549 | 8 | 0 | 0.0 | 9.7 | 0.00 | 1.52 | 1.17 | 96 | 1009.3 |
| 20260506172046 | 8 | 0 | 0.0 | 9.7 | 0.00 | 1.52 | 1.17 | 96 | 1009.3 |
| 20260506171557 | 8 | 0 | 0.0 | 1.6 | 0.00 | 1.52 | 1.17 | 96 | 1009.2 |
| 20260506171050 | 8 | 0 | 0.0 | 1.6 | 0.00 | 1.52 | 1.17 | 96 | 1009.1 |
| 20260506170545 | 8 | 0 | 0.0 | 0.0 | 0.00 | 1.52 | 1.17 | 96 | 1009.1 |
| 20260506170109 | 8 | 0 | 0.0 | 9.7 | 0.00 | 1.52 | 1.17 | 96 | 1009.0 |
| 20260506165548 | 8 | 0 | 0.0 | 9.7 | 0.00 | 1.52 | 1.17 | 96 | 1009.0 |
| 20260506165048 | 8 | 0 | 0.0 | 6.4 | 0.00 | 1.52 | 1.17 | 96 | 1009.0 |
| 20260506164555 | 8 | 0 | 0.0 | 4.8 | 0.00 | 1.52 | 1.17 | 96 | 1009.0 |
| 20260506164046 | 8 | 0 | 0.0 | 0.0 | 0.00 | 1.52 | 1.17 | 96 | 1009.0 |
| 20260506163545 | 8 | 0 | 0.0 | 0.0 | 0.00 | 1.52 | 1.17 | 96 | 1008.9 |
| 20260506163109 | 8 | 0 | 0.0 | 0.0 | 0.00 | 1.52 | 1.17 | 96 | 1008.9 |
| 20260506162545 | 8 | 0 | 0.0 | 0.0 | 0.00 | 1.52 | 1.17 | 96 | 1008.9 |
| 20260506162045 | 8 | 0 | 0.0 | 0.0 | 0.00 | 1.52 | 1.17 | 96 | 1008.8 |
| 20260506161551 | 8 | 0 | 0.0 | 0.0 | 0.00 | 1.50 | 1.14 | 96 | 1008.9 |
| 20260506161045 | 8 | 0 | 0.0 | 0.0 | 0.00 | 1.50 | 1.14 | 96 | 1008.9 |
| 20260506160545 | 8 | 0 | 0.0 | 0.0 | 0.00 | 1.50 | 1.14 | 96 | 1008.8 |
| 20260506160053 | 8 | 0 | 0.0 | 0.0 | 0.00 | 1.50 | 1.14 | 97 | 1008.8 |
| 20260506155545 | 8 | 0 | 0.0 | 0.0 | 0.00 | 1.50 | 1.14 | 97 | 1008.9 |
| 20260506155048 | 8 | 0 | 0.0 | 0.0 | 0.00 | 1.50 | 1.14 | 97 | 1008.9 |
| 20260506154553 | 8 | 0 | 0.0 | 0.0 | 0.00 | 1.50 | 1.14 | 96 | 1008.8 |
| 20260506154046 | 8 | 0 | 0.0 | 0.0 | 0.03 | 1.50 | 1.14 | 96 | 1008.9 |
| 20260506153546 | 8 | 0 | 0.0 | 0.0 | 0.03 | 1.50 | 1.14 | 97 | 1008.8 |
| 20260506153055 | 8 | 0 | 0.0 | 0.0 | 0.03 | 1.50 | 1.14 | 97 | 1008.8 |
| 20260506152545 | 8 | 0 | 0.0 | 0.0 | 0.03 | 1.50 | 1.14 | 97 | 1008.8 |
| 20260506152046 | 8 | 0 | 0.0 | 0.0 | 0.03 | 1.50 | 1.14 | 97 | 1008.7 |
| 20260506151556 | 8 | 0 | 0.0 | 0.0 | 0.03 | 1.50 | 1.12 | 96 | 1008.8 |
| 20260506151048 | 8 | 0 | 0.0 | 8.0 | 0.03 | 1.50 | 1.12 | 97 | 1008.8 |
| 20260506150545 | 8 | 0 | 0.0 | 8.0 | 0.03 | 1.50 | 1.12 | 97 | 1008.8 |
| 20260506150051 | 8 | 0 | 0.0 | 8.0 | 0.05 | 1.50 | 1.12 | 97 | 1008.8 |
| 20260506145546 | 8 | 0 | 0.0 | 3.2 | 0.05 | 1.50 | 1.12 | 97 | 1008.6 |
| 20260506145049 | 8 | 0 | 0.0 | 0.0 | 0.08 | 1.50 | 1.12 | 97 | 1008.6 |
| 20260506144601 | 8 | 0 | 0.0 | 0.0 | 0.08 | 1.50 | 1.12 | 97 | 1008.6 |
| 20260506144042 | 8 | 0 | 0.0 | 6.4 | 0.05 | 1.47 | 1.12 | 97 | 1008.6 |
| 20260506143547 | 8 | 0 | 0.0 | 8.0 | 0.08 | 1.47 | 1.12 | 97 | 1008.7 |
| 20260506143049 | 8 | 355 | 0.0 | 8.0 | 0.08 | 1.47 | 1.12 | 97 | 1008.6 |
| 20260506142545 | 8 | 0 | 0.0 | 6.4 | 0.08 | 1.47 | 1.12 | 97 | 1008.6 |
| 20260506142045 | 8 | 0 | 0.0 | 4.8 | 0.08 | 1.47 | 1.12 | 97 | 1008.6 |
| 20260506141556 | 8 | 0 | 0.0 | 4.8 | 0.08 | 1.45 | 1.09 | 96 | 1008.6 |
| 20260506141046 | 8 | 0 | 0.0 | 8.0 | 0.08 | 1.45 | 1.09 | 96 | 1008.6 |
| 20260506140549 | 8 | 0 | 0.0 | 8.0 | 0.10 | 1.45 | 1.09 | 96 | 1008.5 |
| 20260506140052 | 8 | 0 | 0.0 | 3.2 | 0.08 | 1.42 | 1.07 | 96 | 1008.5 |
| 20260506135545 | 8 | 341 | 0.0 | 1.6 | 0.08 | 1.42 | 1.07 | 97 | 1008.5 |
| 20260506135045 | 7 | 0 | 0.0 | 9.7 | 0.08 | 1.40 | 1.04 | 96 | 1008.5 |
| 20260506134550 | 7 | 0 | 0.0 | 9.7 | 0.08 | 1.40 | 1.04 | 96 | 1008.5 |
| 20260506134046 | 8 | 0 | 0.0 | 3.2 | 0.10 | 1.40 | 1.04 | 97 | 1008.6 |
| 20260506133545 | 8 | 0 | 0.0 | 8.0 | 0.08 | 1.40 | 1.02 | 97 | 1008.5 |
| 20260506133052 | 8 | 0 | 0.0 | 8.0 | 0.08 | 1.37 | 1.02 | 97 | 1008.5 |
| 20260506132545 | 8 | 0 | 0.0 | 3.2 | 0.08 | 1.37 | 1.02 | 97 | 1008.4 |
| 20260506132047 | 7 | 0 | 0.0 | 4.8 | 0.08 | 1.37 | 1.02 | 97 | 1008.5 |
| 20260506131547 | 7 | 0 | 0.0 | 4.8 | 0.08 | 1.35 | 0.99 | 97 | 1008.5 |
| 20260506131045 | 7 | 0 | 0.0 | 6.4 | 0.08 | 1.35 | 0.99 | 97 | 1008.3 |
| 20260506130542 | 7 | 0 | 0.0 | 8.0 | 0.05 | 1.32 | 0.97 | 97 | 1008.3 |
| 20260506130058 | 7 | 0 | 0.0 | 8.0 | 0.05 | 1.32 | 0.97 | 97 | 1008.4 |
| 20260506125550 | 7 | 0 | 0.0 | 6.4 | 0.08 | 1.32 | 0.97 | 97 | 1008.2 |
| 20260506125045 | 7 | 0 | 0.0 | 0.0 | 0.05 | 1.30 | 0.94 | 97 | 1008.3 |
| 20260506124549 | 7 | 0 | 0.0 | 1.6 | 0.05 | 1.30 | 0.94 | 97 | 1008.3 |
| 20260506124042 | 7 | 0 | 0.0 | 8.0 | 0.03 | 1.30 | 0.94 | 97 | 1008.2 |
| 20260506123545 | 8 | 0 | 0.0 | 8.0 | 0.03 | 1.30 | 0.94 | 97 | 1008.3 |
| 20260506123049 | 8 | 0 | 0.0 | 4.8 | 0.03 | 1.30 | 0.94 | 97 | 1008.3 |
| 20260506122546 | 8 | 0 | 0.0 | 9.7 | 0.03 | 1.30 | 0.94 | 97 | 1008.2 |
| 20260506122045 | 8 | 0 | 0.0 | 9.7 | 0.00 | 1.27 | 0.91 | 97 | 1008.1 |
| 20260506121549 | 8 | 0 | 0.0 | 4.8 | 0.03 | 1.27 | 0.91 | 97 | 1008.2 |
| 20260506121045 | 8 | 0 | 0.0 | 9.7 | 0.03 | 1.27 | 0.91 | 97 | 1008.1 |
| 20260506120545 | 8 | 0 | 1.6 | 9.7 | 0.03 | 1.27 | 0.91 | 97 | 1008.1 |
| 20260506120055 | 8 | 0 | 0.0 | 4.8 | 0.03 | 1.27 | 0.91 | 97 | 1008.0 |
| 20260506115545 | 8 | 0 | 0.0 | 6.4 | 0.00 | 1.24 | 0.89 | 97 | 1008.0 |
| 20260506115045 | 8 | 0 | 0.0 | 6.4 | 0.00 | 1.24 | 0.89 | 97 | 1007.9 |
| 20260506114555 | 8 | 0 | 0.0 | 6.4 | 0.00 | 1.24 | 0.89 | 97 | 1007.9 |
| 20260506114045 | 8 | 0 | 0.0 | 8.0 | 0.00 | 1.24 | 0.89 | 97 | 1007.8 |
| 20260506113546 | 8 | 5 | 0.0 | 8.0 | 0.00 | 1.24 | 0.89 | 97 | 1007.8 |
| 20260506113055 | 8 | 0 | 0.0 | 1.6 | 0.00 | 1.24 | 0.89 | 97 | 1007.9 |
| 20260506112546 | 8 | 0 | 0.0 | 8.0 | 0.00 | 1.24 | 0.89 | 97 | 1007.8 |
| 20260506112045 | 8 | 0 | 0.0 | 9.7 | 0.00 | 1.24 | 0.89 | 97 | 1007.9 |
| 20260506111550 | 8 | 0 | 0.0 | 9.7 | 0.00 | 1.22 | 0.86 | 97 | 1007.8 |
| 20260506111045 | 8 | 0 | 0.0 | 9.7 | 0.00 | 1.22 | 0.86 | 97 | 1007.8 |
| 20260506110548 | 8 | 0 | 0.0 | 6.4 | 0.00 | 1.22 | 0.86 | 97 | 1007.7 |
| 20260506110055 | 8 | 0 | 0.0 | 6.4 | 0.00 | 1.22 | 0.86 | 97 | 1007.7 |
| 20260506105545 | 8 | 0 | 0.0 | 8.0 | 0.03 | 1.32 | 0.86 | 97 | 1007.7 |
| 20260506105046 | 8 | 0 | 0.0 | 8.0 | 0.03 | 1.32 | 0.86 | 97 | 1007.7 |
| 20260506104550 | 8 | 0 | 0.0 | 6.4 | 0.05 | 1.32 | 0.86 | 97 | 1007.6 |
| 20260506104045 | 8 | 0 | 0.0 | 6.4 | 0.05 | 1.32 | 0.86 | 97 | 1007.5 |
| 20260506103547 | 8 | 0 | 0.0 | 6.4 | 0.08 | 1.32 | 0.86 | 97 | 1007.5 |
| 20260506103054 | 8 | 0 | 0.0 | 11.3 | 0.08 | 1.32 | 0.86 | 97 | 1007.6 |
| 20260506102546 | 8 | 0 | 0.0 | 11.3 | 0.08 | 1.32 | 0.86 | 97 | 1007.5 |
| 20260506102046 | 8 | 0 | 0.0 | 4.8 | 0.08 | 1.32 | 0.86 | 97 | 1007.5 |
| 20260506101552 | 8 | 0 | 0.0 | 4.8 | 0.08 | 1.30 | 0.84 | 97 | 1007.4 |
| 20260506101045 | 8 | 0 | 0.0 | 6.4 | 0.08 | 1.30 | 0.84 | 97 | 1007.5 |
| 20260506100545 | 8 | 0 | 0.0 | 6.4 | 0.08 | 1.30 | 0.84 | 97 | 1007.3 |
| 20260506100050 | 8 | 323 | 0.0 | 4.8 | 0.05 | 1.30 | 0.84 | 97 | 1007.3 |
| 20260506095546 | 8 | 0 | 0.0 | 0.0 | 0.05 | 1.40 | 0.84 | 97 | 1007.3 |
| 20260506095046 | 8 | 0 | 0.0 | 8.0 | 0.05 | 1.40 | 0.84 | 97 | 1007.2 |
| 20260506094554 | 8 | 0 | 0.0 | 8.0 | 0.03 | 1.40 | 0.81 | 97 | 1007.3 |
| 20260506094046 | 8 | 0 | 0.0 | 8.0 | 0.05 | 1.40 | 0.81 | 97 | 1007.2 |
| 20260506093545 | 8 | 0 | 0.0 | 4.8 | 0.03 | 1.37 | 0.79 | 97 | 1007.2 |
| 20260506093051 | 8 | 0 | 0.0 | 8.0 | 0.00 | 1.35 | 0.76 | 97 | 1007.1 |
| 20260506092542 | 8 | 0 | 0.0 | 9.7 | 0.00 | 1.35 | 0.76 | 97 | 1007.1 |
| 20260506092045 | 8 | 0 | 0.0 | 9.7 | 0.00 | 1.35 | 0.76 | 97 | 1006.9 |
| 20260506091550 | 8 | 0 | 0.0 | 9.7 | 0.00 | 1.35 | 0.76 | 97 | 1006.9 |
| 20260506091045 | 8 | 0 | 0.0 | 9.7 | 0.00 | 1.35 | 0.76 | 97 | 1006.8 |
| 20260506090541 | 8 | 0 | 0.0 | 14.5 | 0.00 | 1.35 | 0.76 | 97 | 1006.8 |
| 20260506090056 | 8 | 0 | 1.6 | 14.5 | 0.00 | 1.35 | 0.76 | 97 | 1006.7 |
| 20260506085545 | 9 | 360 | 0.0 | 12.9 | 0.00 | 1.35 | 0.76 | 97 | 1006.7 |
| 20260506085045 | 8 | 0 | 0.0 | 9.7 | 0.00 | 1.35 | 0.76 | 97 | 1006.7 |
| 20260506084612 | 8 | 0 | 0.0 | 9.7 | 0.00 | 1.35 | 0.76 | 97 | 1006.7 |
| 20260506084045 | 8 | 0 | 0.0 | 4.8 | 0.00 | 1.32 | 0.74 | 97 | 1006.7 |
| 20260506083546 | 8 | 0 | 0.0 | 4.8 | 0.00 | 1.32 | 0.74 | 97 | 1006.7 |
| 20260506083051 | 9 | 0 | 0.0 | 4.8 | 0.00 | 1.32 | 0.74 | 97 | 1006.5 |
| 20260506082545 | 8 | 0 | 0.0 | 0.0 | 0.00 | 1.32 | 0.74 | 97 | 1006.6 |
| 20260506082045 | 8 | 0 | 0.0 | 0.0 | 0.00 | 1.32 | 0.74 | 97 | 1006.6 |
| 20260506081551 | 9 | 0 | 0.0 | 0.0 | 0.00 | 1.32 | 0.74 | 97 | 1006.5 |
| 20260506081045 | 9 | 0 | 0.0 | 4.8 | 0.00 | 1.32 | 0.74 | 97 | 1006.5 |
| 20260506080542 | 9 | 0 | 0.0 | 4.8 | 0.00 | 1.32 | 0.74 | 97 | 1006.5 |
| 20260506073058 | 9 | 0 | 0.0 | 3.2 | 0.00 | 1.32 | 0.74 | 97 | 1006.4 |
| 20260506072542 | 9 | 0 | 0.0 | 6.4 | 0.00 | 1.32 | 0.74 | 97 | 1006.3 |
| 20260506072045 | 9 | 0 | 0.0 | 6.4 | 0.03 | 1.32 | 0.74 | 97 | 1006.4 |
| 20260506071554 | 9 | 0 | 0.0 | 6.4 | 0.00 | 1.30 | 0.74 | 97 | 1006.3 |
| 20260506071041 | 9 | 0 | 0.0 | 3.2 | 0.00 | 1.30 | 0.74 | 97 | 1006.3 |
| 20260506070547 | 9 | 0 | 0.0 | 0.0 | 0.00 | 1.30 | 0.74 | 97 | 1006.4 |
| 20260506062042 | 8 | 0 | 0.0 | 0.0 | 0.00 | 1.30 | 0.71 | 97 | 1006.1 |
| 20260506061558 | 8 | 0 | 0.0 | 0.0 | 0.00 | 1.30 | 0.71 | 97 | 1006.1 |
| 20260506061042 | 8 | 0 | 0.0 | 0.0 | 0.00 | 1.30 | 0.71 | 97 | 1006.1 |
| 20260506060543 | 8 | 0 | 0.0 | 0.0 | 0.03 | 1.30 | 0.71 | 97 | 1005.9 |
| 20260506051047 | 8 | 0 | 0.0 | 3.2 | 0.03 | 1.30 | 0.69 | 97 | 1006.1 |
| 20260506050542 | 8 | 0 | 0.0 | 3.2 | 0.00 | 1.27 | 0.66 | 97 | 1006.0 |
| 20260506050108 | 8 | 0 | 0.0 | 0.0 | 0.00 | 1.27 | 0.66 | 97 | 1006.1 |
| 20260506045043 | 8 | 0 | 0.0 | 0.0 | 0.00 | 1.27 | 0.66 | 97 | 1006.1 |
| 20260506044554 | 8 | 0 | 0.0 | 1.6 | 0.00 | 1.27 | 0.66 | 97 | 1006.2 |
| 20260506044041 | 8 | 0 | 0.0 | 1.6 | 0.00 | 1.27 | 0.66 | 97 | 1006.1 |
| 20260506043544 | 8 | 0 | 0.0 | 4.8 | 0.00 | 1.27 | 0.66 | 97 | 1006.0 |
| 20260506043100 | 8 | 0 | 0.0 | 4.8 | 0.03 | 1.27 | 0.66 | 97 | 1006.1 |
| 20260506042543 | 8 | 0 | 0.0 | 4.8 | 0.00 | 1.24 | 0.64 | 97 | 1006.0 |
| 20260506042045 | 8 | 0 | 0.0 | 0.0 | 0.00 | 1.24 | 0.64 | 97 | 1006.0 |
| 20260506041558 | 8 | 0 | 0.0 | 9.7 | 0.03 | 1.24 | 0.64 | 97 | 1006.0 |
| 20260506041044 | 8 | 0 | 0.0 | 9.7 | 0.03 | 1.24 | 0.64 | 96 | 1005.9 |
| 20260506040545 | 8 | 0 | 0.0 | 9.7 | 0.03 | 1.24 | 0.64 | 96 | 1005.9 |
| 20260506040105 | 9 | 0 | 0.0 | 9.7 | 0.03 | 1.24 | 0.64 | 96 | 1006.0 |
| 20260506035544 | 9 | 0 | 0.0 | 9.7 | 0.05 | 1.24 | 0.64 | 97 | 1006.0 |
| 20260506035045 | 9 | 0 | 0.0 | 3.2 | 0.05 | 1.24 | 0.64 | 97 | 1006.0 |
| 20260506034556 | 9 | 0 | 0.0 | 3.2 | 0.05 | 1.24 | 0.64 | 97 | 1006.0 |
| 20260506034044 | 9 | 0 | 0.0 | 0.0 | 0.05 | 1.24 | 0.64 | 96 | 1006.0 |
| 20260506033542 | 9 | 0 | 0.0 | 4.8 | 0.05 | 1.24 | 0.64 | 96 | 1005.9 |
| 20260506033052 | 9 | 0 | 0.0 | 4.8 | 0.03 | 1.22 | 0.64 | 97 | 1006.0 |
| 20260506032545 | 9 | 0 | 0.0 | 8.0 | 0.05 | 1.22 | 0.64 | 97 | 1006.0 |
| 20260506032042 | 9 | 0 | 0.0 | 9.7 | 0.05 | 1.22 | 0.64 | 97 | 1006.0 |
| 20260506031554 | 9 | 0 | 0.0 | 9.7 | 0.03 | 1.22 | 0.61 | 97 | 1006.0 |
| 20260506031045 | 9 | 355 | 0.0 | 8.0 | 0.03 | 1.22 | 0.61 | 96 | 1006.0 |
| 20260506030545 | 9 | 0 | 0.0 | 8.0 | 0.03 | 1.22 | 0.61 | 96 | 1006.1 |
| 20260506030057 | 10 | 0 | 0.0 | 8.0 | 0.05 | 1.22 | 0.61 | 96 | 1006.2 |
| 20260506025544 | 10 | 0 | 0.0 | 4.8 | 0.03 | 1.19 | 0.58 | 96 | 1006.1 |
| 20260506025044 | 10 | 0 | 0.0 | 8.0 | 0.03 | 1.19 | 0.58 | 96 | 1006.2 |
| 20260506024557 | 10 | 0 | 0.0 | 8.0 | 0.03 | 1.19 | 0.58 | 96 | 1006.2 |
| 20260506024045 | 10 | 0 | 0.0 | 12.9 | 0.03 | 1.19 | 0.58 | 96 | 1006.3 |
| 20260506023546 | 10 | 0 | 1.6 | 12.9 | 0.05 | 1.19 | 0.58 | 96 | 1006.2 |
| 20260506023051 | 10 | 0 | 0.0 | 6.4 | 0.05 | 1.19 | 0.58 | 96 | 1006.2 |
| 20260506022544 | 10 | 0 | 0.0 | 9.7 | 0.03 | 1.17 | 0.56 | 96 | 1006.2 |
| 20260506022044 | 10 | 0 | 0.0 | 9.7 | 0.05 | 1.17 | 0.56 | 96 | 1006.3 |
| 20260506021602 | 10 | 355 | 0.0 | 9.7 | 0.05 | 1.17 | 0.56 | 96 | 1006.3 |
| 20260506021042 | 10 | 344 | 0.0 | 8.0 | 0.08 | 1.17 | 0.56 | 97 | 1006.4 |
| 20260506020545 | 10 | 0 | 0.0 | 8.0 | 0.08 | 1.17 | 0.56 | 97 | 1006.3 |
| 20260506020051 | 10 | 0 | 0.0 | 16.1 | 0.08 | 1.14 | 0.56 | 97 | 1006.4 |
| 20260506015547 | 10 | 0 | 0.0 | 16.1 | 0.08 | 1.14 | 0.56 | 96 | 1006.4 |
| 20260506015047 | 10 | 342 | 0.0 | 16.1 | 0.08 | 1.14 | 0.56 | 96 | 1006.4 |
| 20260506014555 | 10 | 0 | 0.0 | 6.4 | 0.10 | 1.14 | 0.56 | 96 | 1006.4 |
| 20260506014046 | 10 | 0 | 0.0 | 6.4 | 0.13 | 1.14 | 0.56 | 96 | 1006.5 |
| 20260506013541 | 10 | 0 | 0.0 | 6.4 | 0.10 | 1.12 | 0.53 | 96 | 1006.6 |
| 20260506013104 | 10 | 0 | 0.0 | 16.1 | 0.13 | 1.12 | 0.53 | 96 | 1006.6 |
| 20260506012545 | 10 | 0 | 0.0 | 16.1 | 0.10 | 1.12 | 0.51 | 96 | 1006.5 |
| 20260506012049 | 10 | 0 | 1.6 | 16.1 | 0.13 | 1.12 | 0.51 | 96 | 1006.6 |
| 20260506011605 | 10 | 0 | 0.0 | 12.9 | 0.13 | 1.12 | 0.51 | 96 | 1006.6 |
| 20260506011044 | 10 | 0 | 0.0 | 8.0 | 0.13 | 1.09 | 0.48 | 96 | 1006.6 |
| 20260506010544 | 10 | 0 | 0.0 | 8.0 | 0.15 | 1.09 | 0.48 | 96 | 1006.6 |
| 20260506010053 | 10 | 0 | 0.0 | 4.8 | 0.15 | 1.07 | 0.46 | 96 | 1006.6 |
| 20260506005541 | 10 | 0 | 0.0 | 8.0 | 0.13 | 1.04 | 0.46 | 96 | 1006.7 |
| 20260506005043 | 10 | 328 | 0.0 | 8.0 | 0.15 | 1.04 | 0.46 | 96 | 1006.7 |
| 20260506004550 | 10 | 0 | 0.0 | 4.8 | 0.13 | 1.02 | 0.43 | 96 | 1006.8 |
| 20260506004042 | 10 | 0 | 0.0 | 4.8 | 0.13 | 1.02 | 0.41 | 96 | 1006.8 |
| 20260506003545 | 10 | 0 | 0.0 | 3.2 | 0.15 | 1.02 | 0.41 | 96 | 1006.9 |
| 20260506003052 | 10 | 0 | 0.0 | 6.4 | 0.13 | 0.99 | 0.38 | 96 | 1006.8 |
| 20260506002541 | 10 | 0 | 0.0 | 6.4 | 0.15 | 0.99 | 0.38 | 96 | 1006.9 |
| 20260506002042 | 10 | 0 | 0.0 | 6.4 | 0.13 | 0.97 | 0.36 | 96 | 1006.9 |
| 20260506001554 | 10 | 0 | 0.0 | 8.0 | 0.13 | 0.94 | 0.36 | 96 | 1007.0 |
| 20260506001044 | 10 | 0 | 0.0 | 8.0 | 0.15 | 0.94 | 0.36 | 96 | 1007.0 |
| 20260506000542 | 10 | 0 | 0.0 | 9.7 | 0.13 | 0.94 | 0.33 | 96 | 1007.0 |
| 20260506000050 | 10 | 0 | 0.0 | 9.7 | 0.13 | 0.91 | 0.30 | 96 | 1007.0 |
| 20260505235541 | 10 | 0 | 0.0 | 6.4 | 0.15 | 0.91 | 0.30 | 96 | 1007.0 |
| 20260505235045 | 10 | 0 | 0.0 | 6.4 | 0.13 | 0.89 | 0.28 | 96 | 1007.1 |
| 20260505234606 | 10 | 0 | 0.0 | 1.6 | 0.15 | 0.89 | 0.28 | 96 | 1007.3 |
| 20260505234047 | 10 | 0 | 0.0 | 1.6 | 0.15 | 0.86 | 0.28 | 96 | 1007.4 |
| 20260505233547 | 10 | 0 | 0.0 | 4.8 | 0.13 | 0.84 | 0.25 | 96 | 1007.3 |
| 20260505233048 | 10 | 0 | 0.0 | 4.8 | 0.15 | 0.84 | 0.25 | 96 | 1007.3 |
| 20260505232547 | 10 | 0 | 0.0 | 0.0 | 0.15 | 0.84 | 0.23 | 96 | 1007.4 |
| 20260505232047 | 10 | 0 | 0.0 | 6.4 | 0.15 | 0.81 | 0.20 | 96 | 1007.4 |
| 20260505231605 | 10 | 0 | 0.0 | 6.4 | 0.18 | 0.81 | 0.20 | 96 | 1007.5 |
| 20260505231045 | 10 | 0 | 0.0 | 6.4 | 0.15 | 0.79 | 0.18 | 96 | 1007.4 |
| 20260505230545 | 10 | 0 | 0.0 | 3.2 | 0.18 | 0.79 | 0.18 | 96 | 1007.5 |
| 20260505230054 | 10 | 0 | 0.0 | 0.0 | 0.18 | 0.76 | 0.18 | 96 | 1007.5 |
| 20260505225547 | 10 | 0 | 0.0 | 0.0 | 0.15 | 0.74 | 0.15 | 96 | 1007.6 |
| 20260505225047 | 10 | 0 | 0.0 | 1.6 | 0.18 | 0.74 | 0.15 | 96 | 1007.6 |
| 20260505224551 | 10 | 0 | 0.0 | 1.6 | 0.15 | 0.74 | 0.13 | 96 | 1007.7 |
| 20260505224050 | 10 | 0 | 0.0 | 0.0 | 0.15 | 0.71 | 0.10 | 96 | 1007.6 |
| 20260505223546 | 10 | 0 | 0.0 | 0.0 | 0.15 | 0.69 | 0.08 | 96 | 1007.7 |
| 20260505223103 | 10 | 0 | 0.0 | 0.0 | 0.18 | 0.69 | 0.08 | 96 | 1007.7 |
| 20260505222548 | 10 | 0 | 0.0 | 6.4 | 0.15 | 0.66 | 0.08 | 96 | 1007.7 |
| 20260505222051 | 10 | 0 | 0.0 | 6.4 | 0.15 | 0.64 | 0.05 | 96 | 1007.7 |
| 20260505221558 | 10 | 0 | 0.0 | 0.0 | 0.13 | 0.64 | 0.03 | 96 | 1007.8 |
| 20260505221048 | 10 | 0 | 0.0 | 1.6 | 0.15 | 0.64 | 0.03 | 96 | 1007.8 |
| 20260505220546 | 10 | 0 | 0.0 | 1.6 | 0.13 | 0.61 | 0.00 | 96 | 1007.8 |
| 20260505220054 | 10 | 0 | 0.0 | 0.0 | 0.13 | 0.58 | 0.00 | 96 | 1007.8 |
| 20260505215547 | 10 | 0 | 0.0 | 0.0 | 0.13 | 0.61 | 0.58 | 96 | 1007.8 |
| 20260505215047 | 10 | 0 | 0.0 | 0.0 | 0.13 | 0.58 | 0.56 | 96 | 1007.9 |
| 20260505214612 | 10 | 0 | 0.0 | 0.0 | 0.13 | 0.58 | 0.56 | 96 | 1007.9 |
| 20260505214046 | 10 | 0 | 0.0 | 0.0 | 0.10 | 0.56 | 0.56 | 96 | 1008.1 |
| 20260505213545 | 10 | 0 | 0.0 | 1.6 | 0.10 | 0.56 | 0.53 | 96 | 1008.0 |
| 20260505213057 | 10 | 0 | 0.0 | 1.6 | 0.08 | 0.53 | 0.51 | 96 | 1008.0 |
| 20260505212545 | 10 | 0 | 0.0 | 1.6 | 0.08 | 0.51 | 0.48 | 96 | 1008.1 |
| 20260505212048 | 10 | 0 | 0.0 | 0.0 | 0.08 | 0.51 | 0.48 | 96 | 1008.2 |
| 20260505211551 | 10 | 0 | 0.0 | 0.0 | 0.08 | 0.48 | 0.46 | 96 | 1008.1 |
| 20260505211047 | 10 | 0 | 0.0 | 0.0 | 0.10 | 0.48 | 0.46 | 96 | 1008.2 |
| 20260505210546 | 10 | 0 | 0.0 | 0.0 | 0.08 | 0.46 | 0.46 | 96 | 1008.1 |
| 20260505210050 | 10 | 0 | 0.0 | 9.7 | 0.08 | 0.46 | 0.46 | 96 | 1008.3 |
| 20260505205547 | 10 | 0 | 0.0 | 9.7 | 0.10 | 0.46 | 0.46 | 96 | 1008.3 |
| 20260505205048 | 10 | 0 | 0.0 | 4.8 | 0.08 | 0.46 | 0.43 | 96 | 1008.3 |
| 20260505204549 | 10 | 0 | 0.0 | 4.8 | 0.08 | 0.46 | 0.43 | 96 | 1008.3 |
| 20260505204046 | 10 | 0 | 0.0 | 4.8 | 0.10 | 0.46 | 0.43 | 96 | 1008.3 |
| 20260505203546 | 10 | 0 | 0.0 | 3.2 | 0.08 | 0.43 | 0.41 | 96 | 1008.3 |
| 20260505203054 | 10 | 0 | 0.0 | 3.2 | 0.08 | 0.43 | 0.41 | 96 | 1008.3 |
| 20260505202542 | 10 | 0 | 0.0 | 0.0 | 0.08 | 0.41 | 0.38 | 96 | 1008.5 |
| 20260505202045 | 10 | 0 | 0.0 | 3.2 | 0.08 | 0.41 | 0.38 | 96 | 1008.3 |
| 20260505201557 | 10 | 0 | 0.0 | 3.2 | 0.08 | 0.38 | 0.36 | 96 | 1008.3 |
| 20260505201045 | 10 | 0 | 0.0 | 3.2 | 0.08 | 0.36 | 0.36 | 96 | 1008.4 |
| 20260505200545 | 10 | 0 | 0.0 | 1.6 | 0.08 | 0.36 | 0.36 | 96 | 1008.2 |
| 20260505195541 | 10 | 0 | 0.0 | 9.7 | 0.08 | 0.36 | 0.33 | 95 | 1008.3 |
| 20260505195044 | 10 | 0 | 0.0 | 9.7 | 0.08 | 0.36 | 0.33 | 95 | 1008.4 |
| 20260505194555 | 10 | 0 | 0.0 | 1.6 | 0.08 | 0.36 | 0.33 | 95 | 1008.3 |
| 20260505194045 | 10 | 0 | 0.0 | 1.6 | 0.08 | 0.33 | 0.30 | 95 | 1008.3 |
| 20260505193545 | 10 | 0 | 0.0 | 1.6 | 0.08 | 0.33 | 0.30 | 95 | 1008.4 |
| 20260505193050 | 10 | 0 | 0.0 | 4.8 | 0.08 | 0.33 | 0.30 | 95 | 1008.4 |
| 20260505192546 | 11 | 0 | 0.0 | 4.8 | 0.05 | 0.30 | 0.28 | 95 | 1008.4 |